Home   Weather   Passaic   Past weeks

Flag for USA Past Weather in Passaic, New Jersey, USA — Yesterday and Last 2 Weeks

Now
26 °F

Clear.


Feels Like: 26 °F
Forecast: 24 / 42 °F
Wind: No wind

Location: Teterboro Airport

Current Time: Jan 16, 2017 at 6:13:14 am

Latest Report: Jan 16, 2017 at 4:51 am


Visibility: 10 mi

Pressure: 30.44 "Hg

Humidity: 74%

Dew Point: 19 °F

Location of PassaicLocation

Past Weather in Passaic — Graph

°F

Passaic Temperature Yesterday

Maximum temperature yesterday: 40 °F (at 1:51 pm)
Minimum temperature yesterday: 27 °F (at 5:51 am)
Average temperature yesterday: 34 °F

High & Low Weather Summary for the Past Weeks

 TemperatureHumidityPressure
High67 °F (Jan 12, 6:51 pm)100% (Jan 3, 1:51 am)30.76 "Hg (Jan 3, 1:51 am)
Low7 °F (Jan 9, 6:51 am)32% (Jan 4, 7:51 pm)29.43 "Hg (Jan 4, 3:51 am)
Average35 °F68%30.21 "Hg
* Reported Jan 1 4:51 am — Jan 16 4:51 am, Passaic, Weather by CustomWeather, © 2017

Note: Actual official high and low records may vary slightly from our data, if they occured in-between our weather recording intervals... More about our weather records

Advertising

Passaic Weather History for the Previous 24 Hours

Scroll right to see more
 ConditionsComfort  
Time TempWeatherWind HumidityBarometerVisibility
4:51 am
Mon, Jan 16
26 °FClear.No wind74%30.44 "Hg10 mi
3:51 am27 °FClear.3 mph72%30.45 "Hg10 mi
2:51 am28 °FClear.No wind72%30.45 "Hg10 mi
1:51 am29 °FClear.3 mph66%30.44 "Hg10 mi
12:51 am30 °FChilly.5 mph64%30.42 "Hg10 mi
11:51 pm
Sun, Jan 15
31 °FClear.3 mph64%30.42 "Hg10 mi
10:51 pm30 °FClear.No wind69%30.41 "Hg10 mi
9:51 pm31 °FClear.No wind67%30.40 "Hg10 mi
8:51 pm33 °FClear.3 mph58%30.41 "Hg10 mi
7:51 pm35 °FClear.No wind54%30.37 "Hg10 mi
6:51 pm35 °FClear.6 mph56%30.37 "Hg10 mi
5:51 pm36 °FClear.7 mph54%30.37 "Hg10 mi
4:51 pm38 °FSunny.9 mph51%30.34 "Hg10 mi
3:51 pm40 °FSunny.8 mph49%30.33 "Hg10 mi
2:51 pm40 °FSunny.9 mph51%30.32 "Hg10 mi
1:51 pm40 °FSunny.7 mph49%30.32 "Hg10 mi
12:51 pm38 °FSunny.7 mph53%30.33 "Hg10 mi
11:51 am37 °FSunny.12 mph52%30.35 "Hg10 mi
10:51 am36 °FSunny.10 mph54%30.37 "Hg10 mi
9:51 am34 °FSunny.10 mph59%30.37 "Hg10 mi
8:51 am33 °FSunny.6 mph61%30.36 "Hg10 mi
7:51 am30 °FSunny.5 mph72%30.34 "Hg10 mi
6:51 am30 °FClear.6 mph75%30.31 "Hg10 mi
Weather by CustomWeather, © 2017

See weather overviewHow to use our weather pages